User: anonymous   Login
Location: Codford Saint Peter
(51.1597°N, 2.0531°W)
Time: 02:15:59
(UTC+00:00)
Language:

Cosmos 1674 - Orbit

View from above orbital plane
View from above orbital plane
View from above satellite
View from above satellite

Ground track
Ground track

The orbit data is extracted from the following two-line orbital elements,

1 15944U 85069A   20335.52101336  .00001733  00000-0  78561-4 0  9990
2 15944  82.5095  57.2168 0018063  57.4389 302.8587 15.20019296929601
Epoch (UTC): 30 November 2020 12:30:15
Eccentricity: 0.0018063
inclination: 82.5095°
perigee height: 493 km
apogee height: 518 km
right ascension of ascending node: 57.2168°
argument of perigee: 57.4389°
revolutions per day: 15.20019296
mean anomaly at epoch: 302.8587°
orbit number at epoch: 92960

The dashed part of the orbit path shows where the satellite is in the earth's shadow,  

DLR